Regional Weather Roundup
Issued by NWS

Home | Current Version | Previous Version | Graphics & Text | Print | Product List | Glossary On
Versions: 1 2 3 4 5 6 7 8 9 10 11 12 13 14 15 16 17 18 19 20 21 22 23 24 25 26 27 28 29 30 31 32 33 34 35 36 37 38 39 40 41 42 43 44 45 46 47 48 49 50
000
ASUS43 KMPX 010401
RWRMN
WEATHER ROUNDUP FOR MINNESOTA
NATIONAL WEATHER SERVICE TWIN CITIES/CHANHASSEN MN
1000 PM CST SAT FEB 28 2015


NOTE: "FAIR" INDICATES FEW OR NO CLOUDS BELOW 12,000 FEET WITH NO
SIGNIFICANT WEATHER AND/OR OBSTRUCTIONS TO VISIBILITY. N/A MEANS
CURRENT SKY AND/OR WEATHER CONDITIONS ARE NOT AVAILABLE.

MNZ060>063-068>070-010500-
   Twin Cities Metro

CITY           SKY/WX    TMP DP  RH WIND       PRES   REMARKS
TWIN CITIES    FAIR      13   2  61 S10       30.34S WCI   0
ST PAUL        MOCLDY    12   3  67 S9        30.36F WCI   0
CRYSTAL        MOCLDY    14   4  64 S10       30.31F WCI   1
BLAINE         CLOUDY    16   7  67 S10       30.31F WCI   3
LAKEVILLE      FAIR       9   3  78 S6        30.33S WCI  -1
EDEN PRAIRIE   MOCLDY    13   4  67 S12       30.32S WCI  -1
SOUTH ST PAUL  CLOUDY    13   4  67 S9        30.34S WCI   1
LAKE ELMO      CLOUDY    14   5  67 S9        30.34F WCI   2
$$
MNZ001>005-007-008-013>017-022>024-027-028-010500-
   Northwest Minnesota

CITY           SKY/WX    TMP DP  RH WIND       PRES   REMARKS
BEMIDJI        LGT SNOW  17  13  86 S8        30.10F WCI   6
HALLOCK        MOCLDY     9   1  72 W10       30.12R WCI  -6
ROSEAU         FLURRIES  16  10  79 W12G17    30.07R WCI   3
WARROAD        LGT SNOW  18  12  79 W10G16    30.06S WCI   6
THIEF RVR FALL PTCLDY     9   3  78 W12       30.12R WCI  -6
CROOKSTON      PTCLDY     9   3  78 W9        30.17S WCI  -5
FOSSTON        FLURRIES  12   9  85 W12       30.13R WCI  -2
DETROIT LAKES  LGT SNOW  21  19  93 SW10      30.15R WCI  10
MOORHEAD       PTCLDY    12   9  85 NW14      30.21R WCI  -3
PARK RAPIDS    CLOUDY    17  12  80 S13       30.12F WCI   4
MAHNOMEN       LGT SNOW  16  13  87 W17       30.14R WCI   0
$$
MNZ006-009>011-018-025>026-010500-
   North Central Minnesota

CITY           SKY/WX    TMP DP  RH WIND       PRES   REMARKS
BAUDETTE       LGT SNOW  19  15  84 S14       30.04S FOG     WCI   6
FLAG ISLAND    FLURRIES  18  14  86 SW9       30.03S WCI   6
INTL FALLS     CLOUDY    18   8  65 S8G18     30.08F WCI   8
WASKISH        FLURRIES  18  14  86 S8        30.08F WCI   7
BIG FORK       LGT SNOW  16  10  79 S10G16    30.12F WCI   3
LONGVILLE      LGT SNOW  14  10  85 S7        30.16S WCI   4
GRAND RAPIDS   PTCLDY    12   9  85 S9        30.15F WCI   0
CRANE LAKE     CLOUDY    16   5  62 S8        30.16F WCI   5
ORR            CLOUDY    14   5  67 S9        30.11F WCI   2
COOK           MOCLDY    16   7  67 S8        30.15F WCI   5
WALKER         LGT SNOW  16  12  85 S9        30.12F WCI   4
$$
MNZ012-019>021-037-010500-
   Northeast Minnesota

CITY           SKY/WX    TMP DP  RH WIND       PRES   REMARKS
DULUTH         MOCLDY    13   2  61 SW14      30.20F WCI  -2
HIBBING        PTCLDY    14   5  67 VRB3      30.17F
EVELETH        MOCLDY    18   9  68 SW15G21   30.18F WCI   3
DULUTH HARBOR  PTCLDY    16   3  57 SW14G21   30.28S WCI   1
SILVER BAY     CLOUDY    18   7  62 S10G16    30.21S WCI   6
GRAND MARAIS     N/A     20  11  68 SW26G36   30.25F WCI   2
G MARAIS ARPRT LGT SNOW  12   5  73 S15G23    30.15F WCI  -4
$$
MNZ029>031-032-039>041-046>048-054>057-064-010500-
   West Central Minnesota

CITY           SKY/WX    TMP DP  RH WIND       PRES   REMARKS
FERGUS FALLS   LGT SNOW  19  14  79 SW7       30.22R WCI  10
MORRIS         CLOUDY    19  14  79 S13       30.19R WCI   7
ALEXANDRIA     CLOUDY    17  12  80 S15       30.18S HAZE    WCI   2
ELBOW LAKE     CLOUDY    18  14  85 S13       30.18R WCI   4
WADENA         LGT SNOW  14  10  85 S8        30.15S WCI   3
APPLETON       CLOUDY    19  14  79 S12       30.20S WCI   7
BENSON         CLOUDY    18  12  79 SW12      30.21R WCI   5
ORTONVILLE     CLOUDY    19  12  73 S3        30.19R
MADISON        CLOUDY    18  12  79 S7        30.20S WCI   8
WILLMAR        CLOUDY    18  12  79 S10       30.24S WCI   6
$$
MNZ033>034-036-042>043-049>051-058-059-010500-
   Central Minnesota

CITY           SKY/WX    TMP DP  RH WIND       PRES   REMARKS
ST CLOUD       CLOUDY    13   7  77 S12       30.26S WCI  -1
SAUK CENTRE    CLOUDY    16  12  84 S12G17    30.21S WCI   3
PAYNESVILLE    CLOUDY    14  11  88 E12       30.23F WCI   0
PINE RIVER     FLURRIES  16  10  79 S10       30.20S WCI   3
BRAINERD       CLOUDY    14   9  80 S12       30.20F WCI   0
STAPLES        CLOUDY    14  10  85 S10       30.17F WCI   1
LONG PRAIRIE   LGT SNOW  16  12  86 S13G18    30.20S WCI   2
LITTLE FALLS   FLURRIES  16  10  79 SE8       30.23S WCI   5
LITCHFIELD     CLOUDY    16  12  86 SE8       30.26S WCI   5
MAPLE LAKE     CLEAR     13   9  82 S8        30.28F WCI   2
$$
MNZ037-044-045-052-053-010500-
   East Central Minnesota

CITY           SKY/WX    TMP DP  RH WIND       PRES   REMARKS
PRINCETON      CLEAR     12   7  79 S9        30.28S WCI   0
MORA           MOCLDY    14   5  67 S9        30.29F WCI   2
RUSH CITY      CLOUDY    13   4  69 S10       30.30S WCI   0
MOOSE LAKE     MOCLDY    14   3  62 S6        30.24S WCI   5
HINCKLEY       MOCLDY    14   5  67 S12       30.28F WCI   0
CLOQUET        CLOUDY    12   1  62 S12       30.21F WCI  -2
MCGREGOR       PTCLDY    14   9  79 S10       30.21F WCI   1
$$
MNZ071>073-080-081-089-090-097-098-010500-
   Southwest Minnesota

CITY           SKY/WX    TMP DP  RH WIND       PRES   REMARKS
MONTEVIDEO     CLOUDY    18  12  79 SW10G17   30.22S WCI   6
GRANITE FALLS  MOCLDY    16  11  82 SE13      30.24S WCI   2
CANBY          CLOUDY    21  14  73 S13G20    30.19S WCI   9
MARSHALL       PTCLDY    18  10  73 SW24      30.21F WCI   0
REDWOOD FALLS  MOCLDY    14   9  80 S12       30.26S WCI   0
OLIVIA         CLOUDY    16  12  86 S12       30.24F WCI   3
PIPESTONE      CLOUDY    18  12  79 S16       30.19S WCI   3
WINDOM         CLEAR     16  10  79 S13       30.25S WCI   2
WORTHINGTON    CLEAR     14   9  79 S17       30.25S WCI  -3
JACKSON        CLEAR     16  10  79 S14       30.27S WCI   1
TRACY          CLEAR     17  11  80 S15G24    30.22R WCI   2
SLAYTON        CLEAR     16  11  82 S18       30.22S WCI  -1
$$
MNZ065>067-074>077-082>085-091>093-010500-
   South Central Minnesota

CITY           SKY/WX    TMP DP  RH WIND       PRES   REMARKS
MANKATO        CLOUDY    12  -8  40 S13       30.31F WCI  -3
NEW ULM        CLEAR     14   9  79 S14       30.29S WCI  -1
ST JAMES       CLEAR     16  10  79 S13       30.30F WCI   2
FAIRMONT       CLEAR     12   5  73 S13       30.29S WCI  -3
GLENCOE        CLOUDY    13   9  82 SE9       30.29S WCI   1
FARIBAULT      CLEAR     12   5  73 S10       30.33F WCI  -1
OWATONNA       PTCLDY    12   5  73 S15G21    30.32F WCI  -4
ALBERT LEA     FLURRIES  12   7  79 S14       30.34S WCI  -3
$$
MNZ078>079-086>088-094>096-010500-
   Southeast Minnesota

CITY           SKY/WX    TMP DP  RH WIND       PRES   REMARKS
ROCHESTER      CLOUDY    10   2  69 MISG      30.35F
RED WING       CLOUDY    14   1  57 SW5       30.37F WCI   6
STANTON        PTCLDY    12   4  71 S10       30.33F WCI  -1
DODGE CENTER   FLURRIES  10   7  85 S17       30.33S WCI  -7
WINONA         PTCLDY    16   3  57 S5        30.43S WCI   9
AUSTIN         CLOUDY    10   3  72 S6        30.36S WCI   1
PRESTON        PTCLDY     8   0  69 S10       30.37S WCI  -6
$$
ABBREVIATIONS USED IN REMARKS
   TC - TEMPERATURES IN CELSIUS
  WCI - WIND CHILL INDEX
   HX - HEAT INDEX
  VSB - VISIBILITY
$$


USA.gov is the U.S. government's official web portal to all federal, state and local government web resources and services.